DW0148 Weather Reports


time (UTC)temp
F
wind
direction
speed
knots
gust
knots
rain 1hr
in
rain 24hr
in
rain mn
in
humidity
%
barometer
mb
20180819193053 87 87 1.7 5.2 0.00 0.06 0.02 68 1015.1
20180819192551 86 167 3.5 5.2 0.00 0.06 0.02 70 1015.1
20180819192050 86 152 1.7 4.3 0.00 0.06 0.02 73 1015.1
20180819191549 85 87 0.9 5.2 0.00 0.06 0.02 71 1015.1
20180819191048 85 64 0.9 5.2 0.00 0.06 0.02 71 1015.4
20180819190547 85 195 1.7 5.2 0.00 0.06 0.02 71 1015.4
20180819190046 85 171 3.5 5.2 0.00 0.06 0.02 70 1015.4
20180819185544 84 200 1.7 7.0 0.00 0.06 0.02 71 1015.4
20180819185044 84 220 0.9 7.0 0.00 0.06 0.02 73 1015.4
20180819184543 86 169 3.5 7.0 0.00 0.06 0.02 68 1015.4
20180819184041 86 185 4.3 7.0 0.00 0.06 0.02 66 1015.4
20180819183541 86 158 0.9 4.3 0.00 0.06 0.02 70 1015.4
20180819183040 86 206 0.9 4.3 0.00 0.06 0.02 68 1015.4
20180819182539 86 216 1.7 3.5 0.00 0.06 0.02 69 1015.7
20180819182038 85 204 0.9 3.5 0.00 0.06 0.02 69 1015.4
20180819181536 85 157 1.7 3.5 0.00 0.06 0.02 67 1015.7
20180819181036 85 168 0.9 5.2 0.00 0.06 0.02 70 1015.7
20180819180534 85 217 1.7 5.2 0.00 0.06 0.02 68 1015.7
20180819180033 85 156 1.7 7.0 0.00 0.06 0.02 71 1015.7
20180819175532 85 167 2.6 7.0 0.00 0.06 0.02 66 1015.7
20180819175031 84 171 1.7 3.5 0.00 0.06 0.02 73 1015.7
20180819174530 85 166 1.7 3.5 0.00 0.06 0.02 70 1015.7
20180819174029 85 173 1.7 3.5 0.00 0.06 0.02 73 1015.7
20180819173528 85 169 1.7 3.5 0.00 0.06 0.02 69 1015.7
20180819173027 85 192 0.9 2.6 0.00 0.06 0.02 72 1015.7
20180819172526 84 169 1.7 3.5 0.00 0.06 0.02 72 1015.7
20180819172025 84 172 0.0 3.5 0.00 0.06 0.02 73 1015.7
20180819171523 83 166 1.7 4.3 0.00 0.06 0.02 73 1015.7
20180819171022 83 177 1.7 4.3 0.00 0.06 0.02 71 1016.1
20180819170522 82 166 0.9 3.5 0.00 0.06 0.02 76 1016.1
20180819170021 82 178 0.9 4.3 0.00 0.06 0.02 73 1016.1
20180819165520 82 167 1.7 4.3 0.00 0.06 0.02 75 1016.1
20180819165019 82 165 2.6 4.3 0.00 0.06 0.02 75 1016.1
20180819164518 82 195 0.9 4.3 0.00 0.06 0.02 78 1016.1
20180819164017 82 169 0.0 3.5 0.00 0.06 0.02 79 1016.1
20180819163516 82 206 0.9 3.5 0.00 0.06 0.02 77 1016.1
20180819163015 81 170 0.9 3.5 0.00 0.06 0.02 80 1016.1
20180819162514 81 168 0.9 4.3 0.00 0.06 0.02 78 1016.1
20180819162013 81 191 0.0 4.3 0.00 0.06 0.02 80 1016.4
20180819161513 81 196 1.7 3.5 0.00 0.06 0.02 79 1016.4
20180819161012 80 177 1.7 2.6 0.00 0.06 0.02 82 1016.1
20180819160511 80 173 0.9 2.6 0.00 0.06 0.02 82 1016.1
20180819160010 79 172 0.9 3.5 0.00 0.06 0.02 82 1016.1
20180819155510 79 181 1.7 3.5 0.00 0.06 0.02 84 1016.1
20180819155009 79 201 0.0 2.6 0.00 0.06 0.02 84 1016.1
20180819154508 79 204 0.9 2.6 0.00 0.06 0.02 83 1016.1
20180819154007 79 184 0.9 1.7 0.00 0.06 0.02 83 1016.1
20180819153506 79 169 0.0 1.7 0.00 0.06 0.02 83 1016.1
20180819153005 79 203 0.0 2.6 0.00 0.06 0.02 83 1016.1
20180819152504 79 206 0.9 2.6 0.00 0.06 0.02 81 1016.1
20180819152003 79 203 0.0 2.6 0.00 0.06 0.02 81 1016.4
20180819151501 79 170 0.0 2.6 0.00 0.06 0.02 83 1016.4
20180819151001 78 174 0.0 3.5 0.00 0.06 0.02 85 1016.4
20180819150459 78 198 0.9 3.5 0.00 0.06 0.02 84 1016.1
20180819145958 78 171 1.7 2.6 0.00 0.06 0.02 88 1016.1
20180819145457 78 173 0.0 1.7 0.00 0.06 0.02 86 1016.1
20180819144956 77 174 0.0 1.7 0.00 0.06 0.02 87 1016.1
20180819144455 77 173 0.0 1.7 0.00 0.06 0.02 88 1016.1
20180819143954 77 174 0.0 2.6 0.00 0.06 0.02 88 1016.1
20180819143453 77 174 0.0 2.6 0.00 0.06 0.02 88 1016.1
20180819142952 77 178 1.7 3.5 0.00 0.06 0.02 87 1016.1
20180819142451 77 193 0.9 3.5 0.00 0.06 0.02 87 1016.1
20180819141950 77 179 0.0 1.7 0.00 0.06 0.02 87 1016.1
20180819141449 77 171 0.9 2.6 0.00 0.06 0.02 87 1016.1
20180819140948 77 204 0.9 2.6 0.00 0.06 0.02 88 1016.1
20180819140446 77 200 0.0 2.6 0.00 0.06 0.02 88 1016.1
20180819135945 76 172 0.0 2.6 0.00 0.06 0.02 91 1016.1
20180819135444 76 182 0.9 3.5 0.00 0.06 0.02 93 1016.1
20180819134943 75 169 1.7 3.5 0.00 0.06 0.02 93 1016.1
20180819134442 74 203 0.0 2.6 0.00 0.06 0.02 95 1016.1
20180819133941 74 201 0.9 3.5 0.00 0.06 0.02 94 1016.1
20180819133440 74 198 0.0 3.5 0.00 0.06 0.02 95 1016.1
20180819132939 74 186 0.0 0.9 0.00 0.06 0.02 95 1016.1
20180819132438 74 193 0.0 2.6 0.00 0.06 0.02 96 1016.1
20180819131937 73 188 0.0 2.6 0.00 0.06 0.02 96 1016.1
20180819131436 73 187 0.0 2.6 0.00 0.06 0.02 96 1016.1
20180819130936 73 181 1.7 2.6 0.00 0.06 0.02 96 1016.1
20180819130435 73 191 0.9 2.6 0.00 0.06 0.02 96 1015.7
20180819125934 73 264 0.9 2.6 0.00 0.06 0.02 96 1015.7
20180819125433 73 237 0.9 0.9 0.00 0.06 0.02 96 1016.1
20180819124932 73 239 0.9 0.9 0.00 0.06 0.02 96 1016.1
20180819124431 73 238 0.9 0.9 0.00 0.06 0.02 96 1015.7
20180819123930 73 228 0.9 0.9 0.00 0.06 0.02 96 1015.7
20180819123429 72 227 0.0 0.9 0.00 0.06 0.02 96 1015.7
20180819122949 72 228 0.0 0.9 0.00 0.06 0.02 96 1015.7
20180818223806 78 114 0.0 4.3 0.02 0.33 0.04 87 1013.7
20180818223220 79 92 0.9 4.3 0.02 0.34 0.04 85 1013.7
20180818222719 80 153 0.9 5.2 0.02 0.34 0.04 83 1014.1
20180818222217 81 180 1.7 5.2 0.01 0.33 0.03 80 1013.7
20180818221716 81 123 1.7 5.2 0.00 0.33 0.02 79 1013.7
20180818221215 82 224 1.7 5.2 0.00 0.33 0.02 77 1013.7
20180818220714 83 193 1.7 7.0 0.00 0.34 0.02 75 1013.7
20180818220211 84 180 2.6 7.0 0.00 0.34 0.02 73 1013.7
20180818215710 84 185 2.6 5.2 0.00 0.34 0.02 73 1013.7
20180818215209 85 150 0.9 4.3 0.00 0.35 0.02 73 1013.7
20180818214707 85 199 1.7 5.2 0.00 0.35 0.02 72 1013.7
20180818214206 85 197 2.6 5.2 0.00 0.35 0.02 71 1013.7
20180818213705 86 196 3.5 5.2 0.00 0.35 0.02 68 1013.7
20180818213204 86 186 1.7 3.5 0.00 0.35 0.02 68 1013.7
20180818212703 86 231 1.7 7.0 0.00 0.36 0.02 71 1013.7
20180818212202 85 66 0.9 7.0 0.00 0.36 0.02 70 1013.7
20180818211701 85 35 1.7 8.7 0.00 0.36 0.02 70 1013.7
20180818211200 85 199 4.3 8.7 0.00 0.37 0.02 70 1013.7
20180818210659 85 210 2.6 7.8 0.00 0.37 0.02 70 1013.7
20180818210158 86 195 3.5 7.8 0.00 0.38 0.02 70 1014.1
20180818205657 86 235 1.7 3.5 0.00 0.38 0.02 69 1014.1
20180818205156 85 94 1.7 4.3 0.00 0.39 0.02 71 1014.1
20180818204655 85 83 0.9 4.3 0.00 0.42 0.02 69 1014.1
20180818204154 86 36 2.6 4.3 0.00 0.43 0.02 67 1014.1
20180818203653 86 202 2.6 4.3 0.00 0.43 0.02 69 1014.4
20180818203152 86 323 0.9 3.5 0.00 0.43 0.02 68 1014.4
20180818202651 86 118 0.9 3.5 0.00 0.43 0.02 70 1014.4
20180818202149 85 88 1.7 4.3 0.00 0.43 0.02 66 1014.4
20180818201649 85 120 1.7 4.3 0.00 0.43 0.02 70 1014.4
20180818201147 85 294 1.7 5.2 0.00 0.43 0.02 65 1014.7
20180818200646 85 159 2.6 5.2 0.00 0.43 0.02 68 1014.7
20180818200145 85 187 1.7 3.5 0.00 0.43 0.02 71 1014.7
20180818195644 85 248 0.9 4.3 0.00 0.43 0.02 69 1014.7
20180818195143 85 221 0.9 4.3 0.00 0.43 0.02 66 1015.1
20180818194642 85 177 1.7 5.2 0.00 0.43 0.02 68 1015.1
20180818194140 85 155 1.7 5.2 0.00 0.43 0.02 69 1015.1
20180818193633 84 202 2.6 4.3 0.00 0.43 0.02 73 1015.1